GW4853 Weather Reports


Display with metric or nautical units.
time (UTC)temp
F
wind
direction
speed
MPH
gust
MPH
rain 1hr
in
rain 24hr
in
rain mn
in
humidity
%
barometer
mb
20260508130911 53 125 1.0 3.0 0.00 0.00 0.00 66 1016.0
20260508130408 53 166 2.0 3.0 0.00 0.00 0.00 66 1015.9
20260508125903 52 94 0.0 2.0 0.00 0.00 0.00 68 1015.9
20260508125359 52 90 1.0 2.0 0.00 0.00 0.00 70 1015.7
20260508124858 51 118 0.0 1.0 0.00 0.00 0.00 74 1015.7
20260508124355 50 118 1.0 2.0 0.00 0.00 0.00 72 1015.8
20260508123853 49 91 1.0 2.0 0.00 0.00 0.00 73 1015.8
20260508123351 49 97 1.0 1.0 0.00 0.00 0.00 75 1015.8
20260508122847 48 110 1.0 2.0 0.00 0.00 0.00 78 1015.9
20260508122344 47 111 1.0 2.0 0.00 0.00 0.00 77 1015.9
20260508121841 46 114 1.0 2.0 0.00 0.00 0.00 79 1015.7
20260508121339 46 113 0.0 2.0 0.00 0.00 0.00 81 1015.6
20260508120837 46 113 1.0 2.0 0.00 0.00 0.00 79 1015.7
20260508120334 44 98 0.0 2.0 0.00 0.00 0.00 84 1015.5
20260508115832 43 106 1.0 1.0 0.00 0.00 0.00 87 1015.4
20260508115329 42 95 1.0 2.0 0.00 0.00 0.00 89 1015.2
20260508114826 41 100 2.0 2.0 0.00 0.00 0.00 90 1015.3
20260508114323 40 105 2.0 2.0 0.00 0.00 0.00 91 1015.4
20260508113819 39 115 2.0 2.0 0.00 0.00 0.00 92 1015.3
20260508113318 39 115 1.0 2.0 0.00 0.00 0.00 92 1015.2
20260508112813 38 115 1.0 2.0 0.00 0.00 0.00 93 1015.4
20260508112311 38 115 1.0 2.0 0.00 0.00 0.00 94 1015.3
20260508111807 38 116 0.0 1.0 0.00 0.00 0.00 94 1015.2
20260508111305 37 116 1.0 1.0 0.00 0.00 0.00 95 1015.2
20260508110802 37 116 1.0 2.0 0.00 0.00 0.00 95 1015.0
20260508110259 37 116 1.0 1.0 0.00 0.00 0.00 95 1015.1
20260508105753 37 116 0.0 1.0 0.00 0.00 0.00 95 1015.2
20260508105251 37 116 1.0 2.0 0.00 0.00 0.00 96 1015.0
20260508104748 37 116 0.0 1.0 0.00 0.00 0.00 96 1014.9
20260508104244 36 115 1.0 1.0 0.00 0.00 0.00 96 1015.0
20260508103742 36 115 1.0 1.0 0.00 0.00 0.00 96 1014.9
20260508103238 36 116 1.0 1.0 0.00 0.00 0.00 96 1014.8
20260508102736 36 116 0.0 1.0 0.00 0.00 0.00 96 1014.8
20260508102234 36 116 1.0 1.0 0.00 0.00 0.00 96 1014.7
20260508101731 36 115 1.0 2.0 0.00 0.00 0.00 96 1014.7
20260508101228 36 116 0.0 1.0 0.00 0.00 0.00 96 1014.6
20260508100726 37 115 1.0 2.0 0.00 0.00 0.00 95 1014.7
20260508100224 37 118 1.0 1.0 0.00 0.00 0.00 95 1014.7
20260508095719 37 118 1.0 1.0 0.00 0.00 0.00 95 1014.6
20260508095218 37 118 2.0 2.0 0.00 0.00 0.00 95 1014.6
20260508094714 37 113 1.0 1.0 0.00 0.00 0.00 95 1014.5
20260508094211 37 112 1.0 1.0 0.00 0.00 0.00 95 1014.5
20260508093708 37 112 1.0 2.0 0.00 0.00 0.00 95 1014.6
20260508093206 37 123 1.0 1.0 0.00 0.00 0.00 95 1014.4
20260508092702 37 124 1.0 1.0 0.00 0.00 0.00 95 1014.5
20260508092201 37 124 1.0 2.0 0.00 0.00 0.00 95 1014.4
20260508091658 37 104 1.0 1.0 0.00 0.00 0.00 95 1014.7
20260508091155 37 104 1.0 1.0 0.00 0.00 0.00 95 1014.5
20260508090653 37 104 2.0 2.0 0.00 0.00 0.00 95 1014.4
20260508090150 37 104 1.0 2.0 0.00 0.00 0.00 95 1014.3
20260508085645 37 103 1.0 2.0 0.00 0.00 0.00 95 1014.1
20260508085143 37 103 1.0 1.0 0.00 0.00 0.00 95 1014.4
20260508084639 38 104 1.0 2.0 0.00 0.00 0.00 95 1014.3
20260508084136 38 103 1.0 1.0 0.00 0.00 0.00 95 1014.4
20260508083634 38 103 1.0 1.0 0.00 0.00 0.00 95 1014.3
20260508083131 38 103 2.0 2.0 0.00 0.00 0.00 95 1014.2
20260508082626 38 103 1.0 1.0 0.00 0.00 0.00 95 1014.3
20260508082124 38 102 1.0 1.0 0.00 0.00 0.00 95 1014.2
20260508081621 38 104 1.0 1.0 0.00 0.00 0.00 95 1014.3
20260508081117 38 104 1.0 2.0 0.00 0.00 0.00 95 1014.2
20260508080615 38 103 1.0 1.0 0.00 0.00 0.00 96 1014.2
20260508080113 38 103 1.0 1.0 0.00 0.00 0.00 96 1014.2
20260508075608 38 103 1.0 1.0 0.00 0.00 0.00 96 1014.2
20260508075106 38 102 1.0 2.0 0.00 0.00 0.00 96 1014.3
20260508074604 38 69 1.0 1.0 0.00 0.00 0.00 96 1014.2
20260508074100 38 68 1.0 2.0 0.00 0.00 0.00 96 1014.2
20260508073558 38 68 1.0 1.0 0.00 0.00 0.00 95 1014.1
20260508073055 38 68 0.0 1.0 0.00 0.00 0.00 95 1014.2
20260508072550 38 68 1.0 1.0 0.00 0.00 0.00 96 1014.1
20260508072048 38 68 1.0 1.0 0.00 0.00 0.00 95 1014.1
20260508071546 38 67 1.0 1.0 0.00 0.00 0.00 95 1014.0
20260508071044 38 67 0.0 0.0 0.00 0.00 0.00 95 1014.1
20260508070541 38 68 0.0 0.0 0.00 0.00 0.00 95 1014.2
20260508070039 38 68 1.0 1.0 0.00 0.00 0.00 95 1014.2
20260508065536 38 68 1.0 1.0 0.00 0.00 0.00 96 1014.0
20260508065035 38 68 1.0 1.0 0.00 0.00 0.00 96 1014.4
20260508064532 38 67 0.0 0.0 0.00 0.00 0.00 95 1014.4
20260508064030 38 67 0.0 0.0 0.00 0.00 0.00 95 1014.4
20260508063527 38 67 0.0 1.0 0.00 0.00 0.00 95 1014.3
20260508063025 38 67 0.0 1.0 0.00 0.00 0.00 95 1014.5
20260508062522 38 67 0.0 1.0 0.00 0.00 0.00 95 1014.5
20260508062018 38 67 0.0 0.0 0.00 0.00 0.00 94 1014.6
20260508061517 38 67 0.0 0.0 0.00 0.00 0.00 93 1014.4
20260508061013 39 67 0.0 0.0 0.00 0.00 0.00 94 1014.7
20260508060510 39 67 1.0 1.0 0.00 0.00 0.00 94 1014.4
20260508060008 39 66 0.0 1.0 0.00 0.00 0.00 94 1014.5
20260508055503 38 66 1.0 1.0 0.00 0.00 0.00 94 1014.4
20260508054959 39 66 0.0 0.0 0.00 0.00 0.00 94 1014.4
20260508054456 39 67 0.0 0.0 0.00 0.00 0.00 94 1014.3
20260508053953 39 67 1.0 1.0 0.00 0.00 0.00 95 1014.4
20260508053450 39 67 0.0 0.0 0.00 0.00 0.00 94 1014.4
20260508052948 39 67 0.0 1.0 0.00 0.00 0.00 94 1014.4
20260508052445 39 67 0.0 1.0 0.00 0.00 0.00 94 1014.4
20260508051942 40 66 0.0 1.0 0.00 0.00 0.00 94 1014.5
20260508051437 40 66 0.0 0.0 0.00 0.00 0.00 93 1014.9
20260508050934 40 66 0.0 0.0 0.00 0.00 0.00 93 1014.6
20260508050431 40 66 0.0 0.0 0.00 0.00 0.00 92 1014.8
20260508045927 39 66 0.0 0.0 0.00 0.00 0.00 91 1014.6
20260508045425 40 66 0.0 0.0 0.00 0.00 0.00 91 1014.6
20260508044922 40 66 0.0 0.0 0.00 0.00 0.00 91 1014.5
20260508044419 40 66 0.0 0.0 0.00 0.00 0.00 90 1014.7
20260508043914 40 66 0.0 0.0 0.00 0.00 0.00 89 1014.7
20260508043412 40 66 0.0 0.0 0.00 0.00 0.00 89 1014.6
20260508042908 40 66 0.0 0.0 0.00 0.00 0.00 89 1014.6
20260508042400 41 66 0.0 1.0 0.00 0.00 0.00 88 1014.3
20260508041856 40 66 0.0 0.0 0.00 0.00 0.00 87 1014.5
20260508041353 41 66 0.0 0.0 0.00 0.00 0.00 87 1014.6
20260508040849 41 66 1.0 1.0 0.00 0.00 0.00 88 1014.5
20260508040347 41 66 0.0 0.0 0.00 0.00 0.00 87 1014.4
20260508035844 41 66 0.0 0.0 0.00 0.00 0.00 87 1014.4
20260508035341 41 66 0.0 0.0 0.00 0.00 0.00 86 1014.5
20260508034838 42 66 0.0 0.0 0.00 0.00 0.00 86 1014.5
20260508034335 42 66 0.0 0.0 0.00 0.00 0.00 84 1014.4
20260508033832 42 66 1.0 1.0 0.00 0.00 0.00 83 1014.5
20260508033331 42 66 0.0 0.0 0.00 0.00 0.00 84 1014.5
20260508032828 42 66 0.0 0.0 0.00 0.00 0.00 83 1014.4
20260508032325 42 66 0.0 0.0 0.00 0.00 0.00 82 1014.6
20260508031821 43 66 0.0 1.0 0.00 0.00 0.00 82 1014.5
20260508031318 43 66 0.0 1.0 0.00 0.00 0.00 80 1014.2
20260508030814 44 66 0.0 0.0 0.00 0.00 0.00 77 1014.5
20260508030312 43 65 0.0 0.0 0.00 0.00 0.00 78 1014.2
20260508025808 44 65 0.0 0.0 0.00 0.00 0.00 78 1014.3
20260508025306 44 65 0.0 0.0 0.00 0.00 0.00 78 1014.3
20260508024801 44 65 0.0 0.0 0.00 0.00 0.00 78 1014.4
20260508024258 44 66 0.0 0.0 0.00 0.00 0.00 77 1014.5
20260508023755 45 66 0.0 0.0 0.00 0.00 0.00 75 1014.3
20260508023252 45 66 0.0 0.0 0.00 0.00 0.00 75 1014.2
20260508022748 45 65 0.0 0.0 0.00 0.00 0.00 74 1014.2
20260508022245 45 65 0.0 0.0 0.00 0.00 0.00 74 1014.1
20260508021742 45 65 0.0 0.0 0.00 0.00 0.00 72 1014.2
20260508021237 46 65 0.0 0.0 0.00 0.00 0.00 70 1014.1
20260508020735 47 65 0.0 0.0 0.00 0.00 0.00 68 1014.0
20260508020232 48 65 0.0 0.0 0.00 0.00 0.00 66 1013.9
20260508015729 48 65 1.0 1.0 0.00 0.00 0.00 64 1014.0
20260508015226 48 65 1.0 1.0 0.00 0.00 0.00 65 1013.6
20260508014723 48 65 0.0 1.0 0.00 0.00 0.00 66 1013.6
20260508014220 48 65 0.0 1.0 0.00 0.00 0.00 65 1013.6
20260508013715 48 65 0.0 0.0 0.00 0.00 0.00 66 1013.7
20260508013212 48 65 0.0 0.0 0.00 0.00 0.00 66 1013.6
20260508012710 48 65 0.0 0.0 0.00 0.00 0.00 65 1013.4
20260508012206 48 65 0.0 0.0 0.00 0.00 0.00 66 1013.3
20260508011705 49 65 0.0 0.0 0.00 0.00 0.00 64 1013.4
20260508011202 50 65 0.0 0.0 0.00 0.00 0.00 61 1013.3
20260508010658 51 64 0.0 0.0 0.00 0.00 0.00 59 1013.2
20260508010156 51 65 0.0 0.0 0.00 0.00 0.00 56 1013.1
20260508005653 52 65 0.0 1.0 0.00 0.00 0.00 55 1013.1
20260508005150 52 65 1.0 1.0 0.00 0.00 0.00 53 1013.1
20260508004646 53 55 0.0 1.0 0.00 0.00 0.00 53 1013.2
20260508004142 53 38 1.0 1.0 0.00 0.00 0.00 52 1013.2
20260508003639 54 38 1.0 1.0 0.00 0.00 0.00 51 1013.0
20260508003136 55 27 1.0 1.0 0.00 0.00 0.00 51 1013.0
20260508002632 55 355 0.0 1.0 0.00 0.00 0.00 48 1013.1
20260508002131 56 345 2.0 4.0 0.00 0.00 0.00 46 1013.0
20260508001625 57 315 1.0 2.0 0.00 0.00 0.00 45 1012.9
20260508001122 57 319 2.0 6.0 0.00 0.00 0.00 44 1012.9
20260508000618 57 358 0.0 3.0 0.00 0.00 0.00 44 1012.9
20260508000115 58 304 2.0 4.0 0.00 0.00 0.00 43 1012.7
20260507235612 58 344 3.0 8.0 0.00 0.00 0.00 42 1012.9
20260507235110 58 309 4.0 6.0 0.00 0.00 0.00 41 1012.6
20260507234606 58 321 5.0 7.0 0.00 0.00 0.00 40 1012.7
20260507234102 59 302 3.0 4.0 0.00 0.00 0.00 41 1012.6
20260507233559 59 327 6.0 8.0 0.00 0.00 0.00 39 1012.4
20260507233058 59 333 2.0 4.0 0.00 0.00 0.00 40 1012.5
20260507232553 59 293 2.0 4.0 0.00 0.00 0.00 39 1012.4
20260507232051 60 328 6.0 9.0 0.00 0.00 0.00 37 1012.6
20260507231547 60 338 4.0 8.0 0.00 0.00 0.00 37 1012.4
20260507231045 60 308 2.0 4.0 0.00 0.00 0.00 37 1012.5
20260507230541 60 337 3.0 8.0 0.00 0.00 0.00 37 1012.5
20260507230038 61 294 4.0 9.0 0.00 0.00 0.00 36 1012.3
20260507225533 62 303 2.0 4.0 0.00 0.00 0.00 38 1012.4
20260507225029 63 317 2.0 3.0 0.00 0.00 0.00 37 1012.2
20260507224525 63 284 2.0 3.0 0.00 0.00 0.00 36 1012.2
20260507224022 63 288 2.0 4.0 0.00 0.00 0.00 34 1012.2
20260507223518 63 242 2.0 4.0 0.00 0.00 0.00 35 1012.0
20260507223016 64 305 3.0 6.0 0.00 0.00 0.00 34 1012.0
20260507222513 64 283 2.0 4.0 0.00 0.00 0.00 32 1012.1
20260507222009 64 311 2.0 9.0 0.00 0.00 0.00 33 1012.1
20260507221506 65 264 2.0 4.0 0.00 0.00 0.00 34 1011.8
20260507221002 65 295 1.0 7.0 0.00 0.00 0.00 38 1012.1
20260507220459 63 349 2.0 7.0 0.00 0.00 0.00 32 1012.1
20260507215956 63 13 6.0 10.0 0.00 0.00 0.00 35 1011.9
20260507215452 64 20 4.0 10.0 0.00 0.00 0.00 35 1011.8
20260507214950 65 326 4.0 7.0 0.00 0.00 0.00 34 1011.8
20260507214447 65 314 4.0 6.0 0.00 0.00 0.00 33 1011.6
20260507213943 64 219 4.0 11.0 0.00 0.00 0.00 33 1011.8
20260507213440 64 304 2.0 6.0 0.00 0.00 0.00 35 1012.0
20260507212937 64 52 1.0 8.0 0.00 0.00 0.00 38 1011.9
20260507212432 64 290 3.0 13.0 0.00 0.00 0.00 38 1011.5
20260507211930 64 324 10.0 15.0 0.00 0.00 0.00 34 1011.5
20260507211426 65 353 4.0 7.0 0.00 0.00 0.00 34 1011.5
20260507210923 65 359 1.0 6.0 0.00 0.00 0.00 37 1011.3
20260507210420 65 3 4.0 11.0 0.00 0.00 0.00 37 1011.4
20260507205917 65 294 2.0 3.0 0.00 0.00 0.00 36 1011.4
20260507205414 64 268 4.0 7.0 0.00 0.00 0.00 33 1011.4
20260507204910 64 312 3.0 10.0 0.00 0.00 0.00 36 1011.3
20260507204406 64 303 7.0 11.0 0.00 0.00 0.00 37 1011.1
20260507203904 64 340 3.0 9.0 0.00 0.00 0.00 40 1011.2
20260507203402 64 286 3.0 3.0 0.00 0.00 0.00 37 1011.3
20260507202858 65 281 2.0 9.0 0.00 0.00 0.00 40 1011.2
20260507202354 64 331 7.0 13.0 0.00 0.00 0.00 36 1011.3
20260507201845 65 295 4.0 8.0 0.00 0.00 0.00 37 1011.3
20260507201340 65 307 4.0 7.0 0.00 0.00 0.00 38 1011.2
20260507200836 63 324 5.0 7.0 0.00 0.00 0.00 46 1011.2
20260507200333 64 352 3.0 6.0 0.00 0.00 0.00 39 1011.1
20260507195829 64 312 6.0 10.0 0.00 0.00 0.00 40 1011.2
20260507195327 64 226 3.0 6.0 0.00 0.00 0.00 39 1011.3
20260507194824 64 326 3.0 7.0 0.00 0.00 0.00 39 1011.1
20260507194320 64 302 3.0 4.0 0.00 0.00 0.00 38 1011.4
20260507193817 64 8 5.0 9.0 0.00 0.00 0.00 41 1011.4
20260507193314 63 334 3.0 6.0 0.00 0.00 0.00 43 1011.2
20260507192809 64 322 3.0 9.0 0.00 0.00 0.00 39 1011.3
20260507192307 65 303 1.0 6.0 0.00 0.00 0.00 38 1011.2
20260507191803 63 308 4.0 4.0 0.00 0.00 0.00 41 1011.6
20260507191259 64 304 2.0 10.0 0.00 0.00 0.00 40 1011.6
20260507190756 64 353 1.0 6.0 0.00 0.00 0.00 46 1011.6
20260507190255 64 323 3.0 6.0 0.00 0.00 0.00 40 1011.8
20260507185753 62 324 6.0 11.0 0.00 0.00 0.00 43 1012.0
20260507185249 63 261 3.0 8.0 0.00 0.00 0.00 43 1011.9
20260507184747 64 229 5.0 7.0 0.00 0.00 0.00 39 1012.0
20260507184245 64 344 5.0 7.0 0.00 0.00 0.00 41 1011.8
20260507183741 62 295 0.0 2.0 0.00 0.00 0.00 40 1012.0
20260507183238 65 312 2.0 4.0 0.00 0.00 0.00 42 1011.8
20260507182736 64 298 2.0 4.0 0.00 0.00 0.00 48 1012.1
20260507182235 62 314 6.0 7.0 0.00 0.00 0.00 39 1011.8
20260507181733 62 312 2.0 7.0 0.00 0.00 0.00 45 1011.9
20260507181229 62 354 4.0 6.0 0.00 0.00 0.00 42 1012.0
20260507180726 64 236 6.0 8.0 0.00 0.00 0.00 38 1012.1
20260507180223 64 224 2.0 6.0 0.00 0.00 0.00 42 1011.9
20260507175718 64 312 4.0 7.0 0.00 0.00 0.00 48 1012.0
20260507175215 64 202 6.0 8.0 0.00 0.00 0.00 41 1012.0
20260507174713 64 245 1.0 9.0 0.00 0.00 0.00 46 1012.3
20260507174211 62 341 2.0 6.0 0.00 0.00 0.00 43 1012.3
20260507173708 63 237 3.0 6.0 0.00 0.00 0.00 42 1012.2
20260507173205 64 305 3.0 4.0 0.00 0.00 0.00 43 1012.3
20260507172701 63 38 2.0 7.0 0.00 0.00 0.00 45 1012.3
20260507172158 62 1 3.0 8.0 0.00 0.00 0.00 45 1012.6
20260507171658 62 318 0.0 3.0 0.00 0.00 0.00 45 1012.4
20260507171156 62 258 3.0 6.0 0.00 0.00 0.00 53 1012.7
20260507170653 61 273 2.0 4.0 0.00 0.00 0.00 44 1012.8
20260507170150 63 344 2.0 4.0 0.00 0.00 0.00 47 1012.9
20260507165645 62 204 3.0 8.0 0.00 0.00 0.00 52 1012.9
20260507165142 61 329 4.0 6.0 0.00 0.00 0.00 50 1012.9
20260507164637 61 334 5.0 6.0 0.00 0.00 0.00 47 1013.0
20260507164135 62 162 2.0 3.0 0.00 0.00 0.00 43 1013.0
20260507163632 61 289 3.0 3.0 0.00 0.00 0.00 46 1013.1
20260507163130 61 348 3.0 7.0 0.00 0.00 0.00 46 1013.1
20260507162625 62 246 2.0 7.0 0.00 0.00 0.00 50 1013.4
20260507162122 61 301 4.0 7.0 0.00 0.00 0.00 46 1013.3
20260507161618 60 310 2.0 7.0 0.00 0.00 0.00 47 1013.3
20260507161115 60 308 2.0 11.0 0.00 0.00 0.00 47 1013.4
20260507160612 61 248 1.0 3.0 0.00 0.00 0.00 50 1013.5
20260507160108 61 347 3.0 3.0 0.00 0.00 0.00 45 1013.6
20260507155603 61 244 4.0 4.0 0.00 0.00 0.00 45 1013.5
20260507155100 60 309 2.0 4.0 0.00 0.00 0.00 56 1013.7
20260507154557 61 7 1.0 2.0 0.00 0.00 0.00 49 1013.8
20260507154054 62 209 0.0 2.0 0.00 0.00 0.00 48 1013.8
20260507153551 61 242 4.0 4.0 0.00 0.00 0.00 45 1013.9
20260507153047 60 265 1.0 6.0 0.00 0.00 0.00 50 1013.9
20260507152543 61 311 1.0 3.0 0.00 0.00 0.00 48 1013.9
20260507152040 59 345 2.0 6.0 0.00 0.00 0.00 53 1014.1
20260507151536 59 349 4.0 6.0 0.00 0.00 0.00 51 1013.9
20260507151034 60 36 2.0 6.0 0.00 0.00 0.00 47 1014.0
20260507150531 61 13 5.0 8.0 0.00 0.00 0.00 48 1014.1
20260507150028 60 257 1.0 4.0 0.00 0.00 0.00 49 1014.2
20260507145528 60 347 5.0 7.0 0.00 0.00 0.00 48 1014.2
20260507145026 60 351 2.0 4.0 0.00 0.00 0.00 52 1014.5
20260507144522 60 249 3.0 3.0 0.00 0.00 0.00 50 1014.4
20260507144020 59 348 1.0 3.0 0.00 0.00 0.00 48 1014.3
20260507143517 59 305 2.0 4.0 0.00 0.00 0.00 51 1014.4
20260507143014 59 8 2.0 3.0 0.00 0.00 0.00 50 1014.6
20260507142509 58 324 0.0 4.0 0.00 0.00 0.00 53 1014.8
20260507142007 58 341 4.0 4.0 0.00 0.00 0.00 52 1014.4
20260507141502 58 12 3.0 4.0 0.00 0.00 0.00 56 1014.8
20260507140959 58 3 1.0 2.0 0.00 0.00 0.00 55 1014.7
20260507140456 58 5 2.0 3.0 0.00 0.00 0.00 52 1014.6
20260507135953 58 295 3.0 3.0 0.00 0.00 0.00 54 1014.9
20260507135450 58 349 3.0 4.0 0.00 0.00 0.00 57 1014.8
20260507134947 57 7 1.0 2.0 0.00 0.00 0.00 62 1014.7
20260507134444 56 223 2.0 3.0 0.00 0.00 0.00 58 1014.8
20260507133940 57 336 2.0 4.0 0.00 0.00 0.00 61 1014.7
20260507133436 56 359 2.0 2.0 0.00 0.00 0.00 58 1014.7
20260507132935 56 357 0.0 2.0 0.00 0.00 0.00 64 1014.7
20260507132431 56 4 1.0 3.0 0.00 0.00 0.00 67 1014.5
20260507131927 56 344 1.0 3.0 0.00 0.00 0.00 64 1014.7
20260507131424 55 20 0.0 0.0 0.00 0.00 0.00 75 1014.4